Klamath Falls, OR

4:00 PM PST on February 08, 2016 (GMT -0800)
Klamath Falls International

Weather History for KLMT - August, 2014

Change the Weather History Date:

Monday, August 11, 2014

  Actual Average Record
Temperature  
Mean Temperature 72 °F 66 °F  
Max Temperature 89 °F 84 °F 99 °F (1992)
Min Temperature 55 °F 48 °F 39 °F (1995)
Degree Days  
Heating Degree Days 0 2  
Month to date heating degree days 0 15  
Since 1 June heating degree days 185 282  
Since 1 July heating degree days 10 65  
Cooling Degree Days 7 3  
Month to date cooling degree days 67 33  
Year to date cooling degree days 295 127  
Since 1 June cooling degree days 295 126  
Growing Degree Days 23 (Base 50)    
Moisture  
Dew Point 47 °F    
Average Humidity 50    
Maximum Humidity 80    
Minimum Humidity 15    
Precipitation  
Precipitation T in 0.01 in 0.27 in (1965)
Month to date precipitation 0.73 0.14  
Year to date precipitation 7.32 9.45  
Sea Level Pressure  
Sea Level Pressure 29.99 in    
Wind  
Wind Speed 5 mph (ENE)    
Max Wind Speed 32 mph    
Max Gust Speed 43 mph    
Visibility 10 miles    
Events Rain    
T = Trace of Precipitation, MM = Missing Value Source: NWS Daily Summary

Daily Weather History Graph

Daily Weather History Graph

Search for Another Location

Airport or City:

Trip Planner

Search our weather history database for the weather conditions in past years. The results will help you decide how hot, cold, wet, or windy it might be!

Date:

Astronomy

Aug. 11, 2014 Rise Set
Actual Time 6:10 AM PDT 8:13 PM PDT
Civil Twilight 5:39 AM PDT 8:43 PM PDT
Nautical Twilight 5:02 AM PDT 9:20 PM PDT
Astronomical Twilight 4:21 AM PDT 10:01 PM PDT
Moon 8:42 PM PDT (8/11) 7:24 AM PDT (8/11)
Length of Visible Light 15h 03m
Length of Day
14h 02m
Full, 98% of the Moon is Illuminated
Aug 11
Full
Aug 17
Last Quarter
Aug 25
New
Sep 2
First Quarter
Sep 8
Full

Hourly Weather History & Observations

Time (PDT) Temp. Dew Point Humidity Pressure Visibility Wind Dir Wind Speed Gust Speed Precip Events Conditions
12:53 AM 62.1 °F 48.9 °F 62% 30.01 in 10.0 mi Calm Calm - N/A   Clear
1:53 AM 57.0 °F 48.9 °F 74% 30.01 in 10.0 mi Calm Calm - N/A   Clear
2:53 AM 57.9 °F 50.0 °F 75% 30.00 in 10.0 mi NNE 3.5 mph - N/A   Clear
3:53 AM 57.9 °F 51.1 °F 78% 30.01 in 10.0 mi SE 5.8 mph - N/A   Clear
4:53 AM 57.0 °F 48.9 °F 74% 30.02 in 10.0 mi North 5.8 mph - N/A   Clear
5:53 AM 57.0 °F 50.0 °F 77% 30.02 in 10.0 mi NNE 5.8 mph - N/A   Clear
6:53 AM 59.0 °F 50.0 °F 72% 30.03 in 10.0 mi East 4.6 mph - N/A   Clear
7:53 AM 60.1 °F 52.0 °F 75% 30.05 in 10.0 mi NNE 4.6 mph - N/A   Clear
8:53 AM 64.0 °F 54.0 °F 70% 30.04 in 10.0 mi Calm Calm - N/A   Clear
9:53 AM 73.0 °F 51.1 °F 46% 30.02 in 10.0 mi NW 8.1 mph - N/A   Clear
10:53 AM 75.9 °F 50.0 °F 40% 30.02 in 10.0 mi Variable 4.6 mph - N/A   Clear
11:53 AM 80.1 °F 48.0 °F 32% 29.99 in 10.0 mi Variable 3.5 mph - N/A   Clear
12:53 PM 84.0 °F 45.0 °F 25% 29.97 in 10.0 mi Variable 4.6 mph - N/A   Partly Cloudy
1:53 PM 87.1 °F 39.0 °F 18% 29.95 in 10.0 mi SE 5.8 mph - N/A   Scattered Clouds
2:53 PM 89.1 °F 36.0 °F 15% 29.91 in 10.0 mi East 3.5 mph - N/A   Scattered Clouds
3:53 PM 82.0 °F 48.9 °F 31% 29.92 in 10.0 mi SE 5.8 mph - N/A   Scattered Clouds
4:53 PM 78.1 °F 41.0 °F 27% 29.98 in 10.0 mi SW 12.7 mph - 0.00 in Rain Light Rain
5:00 PM 80.1 °F 39.0 °F 23% 30.09 in 10.0 mi WSW 8.1 mph - 0.00 in   Mostly Cloudy
5:53 PM 78.1 °F 45.0 °F 31% 29.96 in 10.0 mi WNW 8.1 mph - 0.00 in   Clear
6:53 PM 77.0 °F 45.0 °F 32% 29.94 in 10.0 mi NE 6.9 mph - N/A   Clear
7:53 PM 70.0 °F 52.0 °F 53% 29.97 in 10.0 mi ESE 3.5 mph - N/A   Clear
8:53 PM 69.1 °F 48.9 °F 49% 29.97 in 10.0 mi South 4.6 mph - N/A   Clear
9:53 PM 66.9 °F 50.0 °F 54% 29.97 in 10.0 mi South 4.6 mph - N/A   Clear
10:53 PM 68.0 °F 46.0 °F 45% 29.95 in 10.0 mi Calm Calm - N/A   Clear
11:53 PM 62.1 °F 48.0 °F 60% 29.96 in 10.0 mi NW 3.5 mph - N/A   Partly Cloudy